Погода в Сан-Себастьяне

Испания     43°19′09″N   1°58′58″W
темп.,
°C
ветер,
м/с
пор.,
м/с
влажн.,
%
обл.,
%
осадки,
мм/ч
давл.,
гПа
погр.,
м
24 июля, сб
сб2423:00+15ю119654 0.0 101516
02:00+14ю11950 0.0 101418
05:00+13ю119535 0.0 101417
08:00+14ю11920 0.0 101443
11:00+21с226418 0.0 1014961
14:00+23с435836 0.0 10131369
17:00+22с336045 0.0 1014958
20:00+20ссв12685 0.0 1014537
25 июля, вс
вс2523:00+15ю11910 0.0 101614
02:00+14ю22870 0.0 101530
05:00+14ю228731 0.0 101423
08:00+16ююз1181100 0.0 101466
11:00+19зсз247284 0.1 1015880
14:00+21сз447290 0.3 10151008
17:00+20сз457494 0.4 1015947
20:00+19сз238048 0.6 1015636
26 июля, пн
пн2623:00+16з119489 0.3 101636
02:00+16юз119597 0.5 101625
05:00+16юз119498 0.1 101622
08:00+16юз1193100 0.2 101743
11:00+18сз128198 0.1 1018533
14:00+21сз336748 0.1 10181035
17:00+21ссз337044 0.1 1017992
20:00+19с227829 0.2 1017609
27 июля, вт
вт2723:00+15ююз1197100 0.0 101817
02:00+14ююз119845 0.0 101823
05:00+16ю119289 0.0 101723
08:00+17св018769 0.1 101755
11:00+21ссз116951 0.0 1018868
14:00+21ссз436779 0.1 1018972
17:00+21ссз437155 0.0 1018906
20:00+20с227741 0.1 1017663
28 июля, ср
ср2823:00+15зсз019515 0.0 101922
02:00+15юз019678 0.0 101832
05:00+16зюз119495 0.1 101730
08:00+16з119592 0.3 101853
11:00+19сз128290 0.1 1018533
14:00+19сз2383100 0.3 1019622
17:00+20ссз337584 0.1 1019840
20:00+19ссз238036 0.3 1019589